EW3994 Weather Reports


Display with metric or nautical units.
time (UTC)temp
F
wind
direction
speed
MPH
gust
MPH
rain 1hr
in
rain 24hr
in
rain mn
in
humidity
%
barometer
mb
20260508151826 53 0 0.0 0.0 0.00 0.00 0.00 63 1028.9
20260508150925 53 0 0.0 0.0 0.00 0.00 0.00 63 1028.9
20260508143325 53 235 1.0 4.0 0.00 0.00 0.00 63 1029.0
20260508142425 54 244 1.0 4.0 0.00 0.00 0.00 63 1029.0
20260508141525 54 245 1.0 2.0 0.00 0.00 0.00 63 1029.1
20260508140626 54 228 1.0 2.0 0.00 0.00 0.00 63 1029.1
20260508135726 54 229 0.0 2.0 0.00 0.00 0.00 63 1029.1
20260508134826 54 228 1.0 2.0 0.00 0.00 0.00 63 1029.2
20260508133925 54 232 2.0 3.0 0.00 0.00 0.00 63 1029.2
20260508133027 55 217 3.0 6.0 0.00 0.00 0.00 63 1029.3
20260508132126 55 214 3.0 7.0 0.00 0.00 0.00 63 1029.4
20260508130325 55 198 2.0 5.0 0.00 0.00 0.00 62 1029.4
20260508125425 55 198 3.0 4.0 0.00 0.00 0.00 62 1029.5
20260508124525 55 179 2.0 6.0 0.00 0.00 0.00 62 1029.6
20260508123625 55 184 1.0 3.0 0.00 0.00 0.00 62 1029.6
20260508122725 55 184 1.0 3.0 0.00 0.00 0.00 62 1029.6
20260508121825 55 183 1.0 4.0 0.00 0.00 0.00 62 1029.6
20260508120925 56 185 1.0 4.0 0.00 0.00 0.00 62 1029.6
20260508120025 56 181 1.0 5.0 0.00 0.00 0.00 62 1029.6
20260508115125 56 194 1.0 5.0 0.00 0.00 0.00 62 1029.6
20260508114225 56 173 2.0 6.0 0.00 0.00 0.00 62 1029.7
20260508113325 56 172 1.0 4.0 0.00 0.00 0.00 62 1029.6
20260508111526 56 172 1.0 3.0 0.00 0.00 0.00 62 1029.5
20260508110625 57 167 2.0 5.0 0.00 0.00 0.00 62 1029.5
20260508105725 57 175 2.0 6.0 0.00 0.00 0.00 62 1029.4
20260508104825 57 188 3.0 8.0 0.00 0.00 0.00 62 1029.4
20260508103925 57 181 3.0 9.0 0.00 0.00 0.00 62 1029.3
20260508102125 57 187 3.0 6.0 0.00 0.00 0.00 62 1029.4
20260508094525 58 188 3.0 7.0 0.00 0.00 0.00 62 1029.3
20260508093625 58 185 2.0 6.0 0.00 0.00 0.00 62 1029.2
20260508092724 58 189 3.0 7.0 0.00 0.00 0.00 62 1029.2
20260508091824 58 191 3.0 8.0 0.00 0.00 0.00 62 1029.1
20260508090925 58 202 3.0 7.0 0.00 0.00 0.00 62 1029.1
20260508090026 59 201 4.0 8.0 0.00 0.00 0.00 63 1029.1
20260508085125 59 207 4.0 10.0 0.00 0.00 0.00 63 1029.0
20260508084224 59 217 5.0 11.0 0.00 0.00 0.00 63 1029.0
20260508083324 59 212 6.0 12.0 0.00 0.00 0.00 63 1028.9
20260508080625 59 229 6.0 13.0 0.00 0.00 0.00 62 1028.7
20260508075725 59 231 6.0 15.0 0.00 0.00 0.00 62 1028.6
20260508073925 60 223 7.0 13.0 0.00 0.00 0.00 61 1028.6
20260508072125 61 222 5.0 10.0 0.00 0.00 0.00 61 1028.5
20260508071224 61 221 7.0 14.0 0.00 0.00 0.00 60 1028.5
20260508065424 61 222 7.0 11.0 0.00 0.00 0.00 60 1028.4
20260508064524 61 225 7.0 13.0 0.00 0.00 0.00 60 1028.5
20260508063624 62 222 7.0 14.0 0.00 0.00 0.00 60 1028.5
20260508061824 62 219 8.0 13.0 0.00 0.00 0.00 60 1028.5
20260508060924 62 216 8.0 17.0 0.00 0.00 0.00 58 1028.5
20260508060026 63 231 9.0 17.0 0.00 0.00 0.00 57 1028.5
20260508053325 63 234 9.0 15.0 0.00 0.00 0.00 57 1028.5
20260508052424 64 234 9.0 17.0 0.00 0.00 0.00 56 1028.4
20260508051524 64 223 10.0 17.0 0.00 0.00 0.00 55 1028.5
20260508050624 65 240 8.0 18.0 0.00 0.00 0.00 55 1028.5
20260508045724 64 227 9.0 14.0 0.00 0.00 0.00 55 1028.6
20260508044824 64 215 8.0 15.0 0.00 0.00 0.00 53 1028.6
20260508043024 65 227 7.0 14.0 0.00 0.00 0.00 55 1028.7
20260508042124 65 255 6.0 13.0 0.00 0.00 0.00 58 1028.7
20260508040325 64 220 8.0 14.0 0.00 0.00 0.00 58 1028.9
20260508035424 65 213 7.0 13.0 0.00 0.00 0.00 57 1029.0
20260508034523 64 220 7.0 13.0 0.00 0.00 0.00 60 1029.1
20260508032724 62 218 8.0 14.0 0.00 0.00 0.00 60 1029.3
20260508030924 62 251 8.0 15.0 0.00 0.00 0.00 60 1029.4
20260508025124 63 234 6.0 14.0 0.00 0.00 0.00 62 1029.7
20260508024223 62 232 6.0 16.0 0.00 0.00 0.00 62 1029.8
20260508023324 62 244 7.0 14.0 0.00 0.00 0.00 63 1030.0
20260508021524 61 243 6.0 13.0 0.00 0.00 0.00 61 1030.2
20260508020624 62 231 5.0 10.0 0.00 0.00 0.00 61 1030.2
20260508015723 62 234 7.0 16.0 0.00 0.00 0.00 62 1030.4
20260508013024 61 225 7.0 18.0 0.00 0.00 0.00 60 1030.7
20260508012123 64 216 5.0 10.0 0.00 0.00 0.00 63 1030.7
20260508011223 60 236 5.0 12.0 0.00 0.00 0.00 65 1030.9
20260508010323 59 220 6.0 11.0 0.00 0.00 0.00 64 1031.0
20260508005423 59 199 3.0 9.0 0.00 0.00 0.00 64 1030.8
20260508004523 59 197 3.0 6.0 0.00 0.00 0.00 64 1030.8
20260508003624 60 192 4.0 8.0 0.00 0.00 0.00 65 1030.8
20260508002723 58 192 5.0 12.0 0.00 0.00 0.00 65 1030.7
20260508001824 58 203 4.0 8.0 0.00 0.00 0.00 64 1030.7
20260508000923 58 173 5.0 10.0 0.00 0.00 0.00 63 1030.7
20260508000025 59 169 4.0 10.0 0.00 0.00 0.00 62 1030.7
20260507235123 58 169 4.0 9.0 0.00 0.00 0.00 62 1030.6
20260507233323 59 210 4.0 10.0 0.00 0.00 0.00 61 1030.5
20260507232423 58 227 7.0 14.0 0.00 0.00 0.00 60 1030.5
20260507231523 58 226 8.0 17.0 0.00 0.00 0.00 60 1030.4
20260507230624 58 216 8.0 14.0 0.00 0.00 0.00 60 1030.4
20260507224824 58 220 5.0 11.0 0.00 0.00 0.00 60 1030.2
20260507223924 58 220 5.0 11.0 0.00 0.00 0.00 60 1030.1
20260507222124 57 236 6.0 11.0 0.00 0.00 0.00 60 1029.9
20260507221223 57 242 4.0 8.0 0.00 0.00 0.00 60 1029.7
20260507220323 57 240 6.0 12.0 0.00 0.00 0.00 60 1029.6
20260507215423 57 248 6.0 11.0 0.00 0.00 0.00 60 1029.5
20260507214524 57 248 4.0 8.0 0.00 0.00 0.00 60 1029.4
20260507213623 57 245 3.0 7.0 0.00 0.00 0.00 60 1029.3
20260507212723 57 234 3.0 7.0 0.00 0.00 0.00 60 1029.3
20260507211823 56 230 2.0 4.0 0.00 0.00 0.00 60 1029.2
20260507210923 56 239 2.0 7.0 0.00 0.00 0.00 60 1029.2
20260507210022 56 231 0.0 4.0 0.00 0.00 0.00 60 1029.1
20260507205123 56 200 0.0 1.0 0.00 0.00 0.00 60 1029.2
20260507203323 56 0 0.0 0.0 0.00 0.00 0.00 60 1029.2
20260507195723 57 148 1.0 6.0 0.00 0.00 0.00 60 1029.2
20260507194823 57 168 3.0 6.0 0.00 0.00 0.00 60 1029.4
20260507193023 56 196 4.0 9.0 0.00 0.00 0.00 59 1029.3
20260507192123 56 201 2.0 7.0 0.00 0.00 0.00 59 1029.2
20260507191223 56 198 2.0 6.0 0.00 0.00 0.00 59 1029.1
20260507190323 56 192 0.0 3.0 0.00 0.00 0.00 59 1029.0
20260507185422 56 194 0.0 2.0 0.00 0.00 0.00 59 1029.0
20260507184523 57 194 0.0 2.0 0.00 0.00 0.00 59 1028.9
20260507183622 57 185 2.0 6.0 0.00 0.00 0.00 59 1029.0
20260507180023 57 173 2.0 6.0 0.00 0.00 0.00 58 1029.0
20260507174222 57 191 3.0 7.0 0.00 0.00 0.00 58 1029.4
20260507173322 57 197 3.0 9.0 0.00 0.00 0.00 57 1029.3
20260507172423 57 184 3.0 7.0 0.00 0.00 0.00 57 1029.2
20260507171523 57 161 2.0 6.0 0.00 0.00 0.00 57 1029.2
20260507170624 57 172 2.0 6.0 0.00 0.00 0.00 57 1029.0
20260507165722 57 170 2.0 6.0 0.00 0.00 0.00 57 1029.3
20260507164822 57 196 2.0 5.0 0.00 0.00 0.00 57 1029.2
20260507163923 57 198 3.0 6.0 0.00 0.00 0.00 57 1029.3
20260507163022 57 170 4.0 10.0 0.00 0.00 0.00 57 1029.5
20260507162122 57 164 5.0 14.0 0.00 0.00 0.00 57 1029.5
20260507160323 57 197 5.0 11.0 0.00 0.00 0.00 56 1029.6
20260507155424 57 215 6.0 14.0 0.00 0.00 0.00 56 1029.5
20260507154523 57 203 3.0 7.0 0.00 0.00 0.00 56 1029.5